Location: UBC Liquid-Mirror Observatory
(49.2876°N, 122.5728°W)
Time: 03:27:04
(UTC-07:00)

KITSAT 1 - Visible Passes

Search period start: 05 August 2015 00:00
Search period end: 15 August 2015 00:00
Orbit: 1305 x 1325 km, 66.1° (Epoch: 04 August)

Date Brightness Start Highest point End Pass type
(mag) Time Alt. Az. Time Alt. Az. Time Alt. Az.
05 Aug 10.9 02:00:41 30° SSE 02:03:40 41° ESE 02:11:08 10° NE visible
05 Aug 10.5 03:52:39 18° WSW 03:58:51 62° NW 04:06:56 10° NE visible
06 Aug 12.0 00:24:19 11° ESE 00:25:40 12° E 00:28:46 10° ENE visible
06 Aug 10.5 02:16:17 36° S 02:19:32 57° ESE 02:27:27 10° NE visible
06 Aug 10.8 04:08:15 14° WSW 04:15:12 49° NW 04:23:04 10° NE visible
07 Aug 11.6 00:39:53 18° ESE 00:41:14 19° ESE 00:46:42 10° ENE visible
07 Aug 10.2 02:31:51 37° SSW 02:35:31 77° ESE 02:43:40 10° NE visible
07 Aug 11.2 04:24:08 10° W 04:31:41 40° NNW 04:39:14 10° NE visible
08 Aug 11.2 00:55:25 26° SE 00:56:54 28° ESE 01:03:35 10° NE visible
08 Aug 10.2 02:47:24 33° SW 02:51:37 82° NW 02:59:49 10° NE visible
08 Aug 11.5 04:41:03 10° W 04:48:16 33° NNW 04:55:27 10° NE visible
09 Aug 10.8 01:10:55 36° SE 01:12:40 40° ESE 01:20:06 10° NE visible
09 Aug 10.5 03:02:53 26° WSW 03:07:50 64° NW 03:15:56 10° NE visible
09 Aug 11.7 04:58:04 10° WNW 05:04:57 29° NNW 05:11:48 10° NE visible
09 Aug 12.0 23:34:26 12° E 23:34:42 12° E 23:37:30 10° ENE visible
10 Aug 10.4 01:26:24 44° SSE 01:28:32 55° ESE 01:36:26 10° NE visible
10 Aug 10.8 03:18:21 19° WSW 03:24:10 50° NW 03:32:03 10° NE visible
10 Aug 11.9 05:15:06 10° WNW 05:21:42 26° NNW 05:28:16 10° NE visible
10 Aug 11.6 23:49:53 19° ESE 23:50:16 19° ESE 23:55:36 10° ENE visible
11 Aug 10.2 01:41:50 46° SSW 01:44:30 75° ESE 01:52:39 10° NE visible
11 Aug 11.2 03:33:47 13° W 03:40:38 40° NNW 03:48:13 10° NE visible
12 Aug 11.1 00:05:16 27° ESE 00:05:55 27° ESE 00:12:32 10° NE visible
12 Aug 10.2 01:57:14 40° SW 02:00:36 84° NW 02:08:48 10° NE visible
12 Aug 11.5 03:49:58 10° W 03:57:13 33° NNW 04:04:27 10° NE visible
13 Aug 10.7 00:20:38 37° SE 00:21:41 39° ESE 00:29:04 10° NE visible
13 Aug 10.5 02:12:35 31° WSW 02:16:48 65° NW 02:24:55 10° NE visible
13 Aug 11.7 04:06:58 10° WNW 04:13:53 29° NNW 04:20:46 10° NE visible
13 Aug 11.9 22:44:00 11° E 22:44:00 11° E 22:46:11 10° E visible
14 Aug 10.3 00:35:56 47° SSE 00:37:32 54° ESE 00:45:24 10° NE visible
14 Aug 10.8 02:27:53 22° WSW 02:33:08 51° NW 02:41:02 10° NE visible
14 Aug 11.9 04:24:01 10° WNW 04:30:38 26° NNW 04:37:13 10° NE visible
14 Aug 11.5 22:59:15 18° ESE 22:59:17 18° ESE 23:04:30 10° ENE visible
